ORBCOMM FM 16 DEB, 44023

Orbit data source: Space-Track

ORBCOMM FM 16 DEB, 44023 is space debris in LEO originally from a launch on Sun, 02 Aug 1998 UTC launched from the Pegasus Launch, Eastern Range Air Space (ERAS). Debris objects in space refer to the collection of defunct objects orbiting the Earth. Examples of debris include non-operational satellites, rocket bodies, and fragments generated from explosions, collisions, or faulty payload assembly.

Loading next visibility...
Identifier
44023, 1998-046S
Orbit
LEO
Country
Flag of USUS / ORB
Related business
Manufacturer
OSC-Germantown
Mission
Spacecraft
Bus & Motor
MICROSTAR, Unknown motor
Mass
Unknown
Launch date (UTC)
1998-08-02 (27 years ago)
Launch vehicle
Unknown
Launch site
Pegasus Launch, Eastern Range Air Space (ERAS)
Object type
Payload
Rocket body
Debris
Shape & HBR
Unknown shape, 0.1 m
Radar Cross Section
Small (<0.1 m²)

Expand to show TLE details & history
Last TLE update: 1 day ago

TLE from 1 day ago
0 ORBCOMM FM 16 DEB
1 44023U 98046S   25293.56222265  .00001201  00000-0  47113-3 0  9994
2 44023  45.0060 354.4076 0006971 328.9773  31.0662 14.34563079355059
Epoch: 2025-10-20T13:29Z
TLE epoch observation values (Epoch: 2025-10-20T13:29:36.036Z)
Latitude
-0°
Longitude
122.74469°
Altitude
772.247 km
Speed
7.472 km/s
True Right ascension
23h 37m 37s
True Declination
0° 00' 00"
Sunlit
Object was in full shadow at epoch
Visualization orbit readout
Latitude
Unknown
Longitude
Unknown
Altitude
Unknown
Speed
Unknown
Apparent Right ascension
Unknown
Apparent Declination
Unknown
Sunlit
N/A
Visualization observer readout
Local Sidereal Time
12:43:07
Azimuth
Unknown
Elevation
Unknown
Doppler factor
Unknown
Orbital elements
Apogee altitude
783.05 km
Perigee altitude
773.073 km
Semi-major axis
7,156.198 km
Eccentricity
0.0007
Inclination
45.006°
RAAN
354.4076°
Arg. of periapsis
328.9773°
True anomaly
31.10745°
Mean anomaly
31.0662°
Eccentric anomaly
31.08682°
Mean motion
3.58525 °/min
Orbital period
100.41 mins
BSTAR
0.00047113
Loading maneuver chart data...
Computing Atmospheric mass density...

Documentation

Showing up to 5 results
|